THOR ABLESTAR DEB, 244

Orbit data source: Space-Track

THOR ABLESTAR DEB, 244 is space debris in LEO originally from a launch on Thu, 29 Jun 1961 UTC launched from the Air Force Eastern Test Range (AFETR). Debris objects in space refer to the collection of defunct objects orbiting the Earth. Examples of debris include non-operational satellites, rocket bodies, and fragments generated from explosions, collisions, or faulty payload assembly.

Loading next visibility...
Identifier
244, 1961-015BZ
Orbit
LEO
Country
Flag of USUS
Related business
Manufacturer
Unknown
Mission
Spacecraft
Bus & Motor
Unknown
Mass
Unknown
Launch date (UTC)
1961-06-29 (65 years ago)
Launch vehicle
Unknown
Launch site
Air Force Eastern Test Range (AFETR)
Object type
Payload
Rocket body
Debris
Shape & HBR
Unknown shape, 0.2 m
Radar Cross Section
Small (<0.1 m²)

Expand to show TLE details & history
Last TLE update: 5 hours ago

TLE from 5 hours ago
0 THOR ABLESTAR DEB
1   244U 61015BZ  26126.81964596  .00000110  00000-0  13463-3 0  9990
2   244  66.8417 331.1175 0062876 115.4308 245.3299 13.95728920293369
Epoch: 2026-05-06T19:40Z
TLE epoch observation values (Epoch: 2026-05-06T19:40:17.410Z)
Latitude
Longitude
171.3703°
Altitude
930.07 km
Speed
7.377 km/s
True Right ascension
22h 04m 28s
True Declination
0° 00' 00"
Sunlit
Object was in daylight at epoch
Visualization orbit readout
Latitude
Unknown
Longitude
Unknown
Altitude
Unknown
Speed
Unknown
Apparent Right ascension
Unknown
Apparent Declination
Unknown
Sunlit
N/A
Visualization observer readout
Local Sidereal Time
09:04:15
Azimuth
Unknown
Elevation
Unknown
Doppler factor
Unknown
Orbital elements
Apogee altitude
952.814 km
Perigee altitude
861.202 km
Semi-major axis
7,285.145 km
Eccentricity
0.00629
Inclination
66.8417°
RAAN
331.1175°
Arg. of periapsis
115.4308°
True anomaly
244.67731°
Mean anomaly
245.3299°
Eccentric anomaly
245.00339°
Mean motion
3.49049 °/min
Orbital period
103.14 mins
BSTAR
0.00013463
Loading maneuver chart data...
Computing Atmospheric mass density...

Documentation

Showing up to 5 results
|